Flag for Germany Weather past 2 weeks in Kiel, Schleswig-Holstein, Germany

Now
53 °F

Clear.


Feels Like: 53 °F
Forecast: 61 / 82 °F
Wind: 1 mph from Southeast

Location: Kiel-Holtenau

Current Time: Jul 1, 2015 at 4:11:22 AM

Latest Report: Jul 1, 2015 at 3:00 AM


Visibility: 19 mi

Pressure: 30.24 "Hg

Humidity: 94%

Dew point: 51 °F

Location of KielLocation

Historic Weather in Kiel — Graph

°F

Kiel temperature yesterday

Maximum temperature yesterday: 70 °F (at 2:00 PM)
Minimum temperature yesterday: 54 °F (at 4:00 AM)
Average temperature yesterday: 63 °F

Past Weeks' High & Low Weather Summary

 TemperatureHumidityPressure
High72 °F (Jun 29, 5:00 PM)100% (Jun 18, 12:00 AM)30.26 "Hg (Jun 18, 12:00 AM)
Low40 °F (Jun 17, 5:00 AM)47% (Jun 28, 5:00 PM)29.64 "Hg (Jun 23, 2:00 AM)
Average58 °F79%30.01 "Hg
* Reported Jun 16 3:00 AM — Jul 1 3:00 AM, Kiel, Weather by CustomWeather, © 2015

Note: Actual official high and low records may vary slightly from our data, if they occured in-between our weather recording intervals... More about our weather records

Advertising

Kiel weather history for previous 24 hours

 ConditionsComfort  
Time TempWeatherWind HumidityBarometerVisibility
3:00 AM
Wed, Jul 1
53 °FClear.1 mph94%30.24 "Hg19 mi
2:00 AM54 °FClear.1 mph91%30.24 "Hg25 mi
1:00 AM56 °FClear.1 mph88%30.23 "Hg28 mi
12:00 AM57 °FClear.No wind84%30.23 "Hg37 mi
11:00 PM
Tue, Jun 30
60 °FClear.1 mph76%30.23 "Hg37 mi
10:00 PM62 °FClear.1 mph67%30.22 "Hg43 mi
9:00 PM66 °FSunny.2 mph60%30.21 "Hg43 mi
8:00 PM68 °FSunny.5 mph55%30.21 "Hg28 mi
7:00 PM69 °FSunny.5 mph53%30.21 "Hg17 mi
6:00 PM70 °FSunny.5 mph53%30.21 "Hg19 mi
4:00 PM69 °FScattered clouds.5 mph56%30.21 "Hg17 mi
3:00 PM69 °FPassing clouds.3 mph60%30.21 "Hg19 mi
2:00 PM70 °FScattered clouds.5 mph52%30.21 "Hg14 mi
1:00 PM68 °FPartly sunny.5 mph56%30.21 "Hg19 mi
12:00 PM65 °FOvercast.5 mph64%30.21 "Hg43 mi
11:00 AM66 °FScattered clouds.5 mph62%30.21 "Hg19 mi
10:00 AM65 °FSunny.5 mph64%30.22 "Hg11 mi
9:00 AM63 °FSunny.5 mph73%30.21 "Hg14 mi
8:00 AM59 °FSunny.3 mph85%30.20 "Hg6 mi
7:00 AM57 °FSunny.3 mph90%30.19 "Hg9 mi
6:00 AM54 °FSunny.2 mph96%30.19 "Hg7 mi
5:00 AM54 °FSunny.3 mph99%30.18 "Hg7 mi
4:00 AM54 °FClear.2 mph97%30.17 "Hg12 mi
Weather by CustomWeather, © 2015

See weather overviewHow to use our weather pages